Preview of NWS' New Version of Forecast
This preview is not operational and should not be used for support decisions.

Regional Weather Roundup (RWR)

Issued by Gray - Portland, ME (GYX)

                            
000
ASUS41 KGYX 211010
RWRGYX
WEATHER ROUNDUP FOR MAINE AND NEW HAMPSHIRE
NATIONAL WEATHER SERVICE GRAY ME
600 AM EDT SUN APR 21 2019

MEZ002-005-006-010-012-015-018-020-021-024-026-027-029-211100-
MAINE
  
CITY           SKY/WX    TMP DP  RH WIND       PRES   REMARKS
PORTLAND       FOG       51  49  92 S5        30.00R VSB 1/2          
SANFORD        FOG       55  55 100 CALM      29.98S VSB 1/2          
BAR HARBOR     FOG       52  52 100 SW16G24   30.06R VSB 1/2          
WISCASSET      CLOUDY    53  52  96 S7G18     30.03R FOG              
ROCKLAND       FOG       49  49 100 S8        30.03S VSB 1/4          
FRYEBURG       CLOUDY    55  55 100 SE3       29.96S                  
LEWISTONAUBURN LGT RAIN  52  52 100 SE5       29.99R FOG              
AUGUSTA        CLOUDY    56  56 100 S9        29.99F FOG              
WATERVILLE     CLOUDY    57  56  96 S6        29.95F                  
BANGOR         CLOUDY    53  53 100 S14       30.03R FOG              
GREENVILLE       N/A     46  45  96 SE10      29.95F                  
MILLINOCKET    FOG       41  39  93 CALM      30.03R VSB 1/4          
HOULTON        CLOUDY    44  44 100 VRB3      29.99F FOG              
PRESQUE ISLE   LGT RAIN  42  41  96 S14       30.01F                  
FRENCHVILLE    FOG       42  38  85 SE12      29.96S VSB 1/4          
CARIBOU        FOG       41  40  96 S5        29.99F VSB 1/4          
$$

NHZ002-005-008-009-011-012-014-211100-
NEW HAMPSHIRE
  
CITY           SKY/WX    TMP DP  RH WIND       PRES   REMARKS
PORTSMOUTH     FOG       54  54 100 SE6       29.97R VSB 1/2          
ROCHESTER      FOG       56  56 100 VRB3      29.97S VSB 1/2          
NASHUA         CLOUDY    57  57 100 S3        29.97R                  
MANCHESTER     CLOUDY    59  56  89 S6        29.96R                  
CONCORD        CLOUDY    57  56  96 S6        29.97R                  
LACONIA        CLOUDY    54  54 100 CALM      29.97R                  
PLYMOUTH       CLOUDY    51  49  96 CALM      29.97R FOG              
BERLIN         CLOUDY    53  53 100 E3        29.93R                  
WHITEFIELD     CLOUDY    54  51  90 VRB5      29.92R                  
JAFFREY        CLOUDY    54  52  93 CALM      29.97R                  
KEENE          FOG       52  52 100 CALM      29.95S VSB 1/4          
LEBANON        MOCLDY    51  47  86 S3        29.94R                  
MT WASHINGTON  MOCLDY    39  32  75 SW33G44     N/A                   
$$

VTZ005-007-008-211100-
VERMONT
  
CITY           SKY/WX    TMP DP  RH WIND       PRES   REMARKS
ST JOHNSBURY     N/A     53  52  96 MISG      29.92R                  
MONTPELIER     FAIR      52  47  83 S10       29.96R                  
BURLINGTON     MOCLDY    53  47  79 S5        29.90R                  
$$

MAZ007-012-024-CTZ003-RIZ002-NYZ038-NYZ072-211100-
SOUTHERN NEW ENGLAND AND NY
  
CITY           SKY/WX    TMP DP  RH WIND       PRES   REMARKS
BOSTON         CLOUDY    59  56  89 S7        29.99R                  
WORCESTER      CLOUDY    53  53 100 S3        29.97R                  
NANTUCKET      LGT RAIN  51  51 100 S15       30.02F FOG              
PROVIDENCE     LGT RAIN  55  54  96 S7        29.99S                  
HARTFORD       MOCLDY    54  53  97 CALM      29.95R                  
ALBANY         CLOUDY    52  47  83 CALM      29.91R                  
NEW YORK CITY  LGT RAIN  53  49  86 S7        29.92R                  
$$

ANZ081-ANZ082-ANZ150-NHZ014-MEZ023>029-211100-
COASTAL MARINE OBSERVATIONS
  
STATION/POSITION TIME  TEMP    WIND        PRES    WAVE
                       AIR SEA DIR/SP/G            HT/PER
                 (UTC) (F)     (DEG/KT/KT) (MB)    (FT/S)
ISLE OF SHOALS   0900   55     190/ 15/ 15 1014.6F
JEFFREYS LEDGE   0908      43                N/A     7/ 7
$$

.............KEY..............
   WCI - WIND CHILL
   TC  - TEMPERATURE IN CELSIUS
   VSB - VISIBILITY IN MILES
   HX  - HEAT INDEX
   FAIR- INDICATES FEW OR NO CLOUDS BELOW 12,000 FT, WITH NO 
         SIGNIFICANT WEATHER AND/OR OBSTRUCTIONS TO VISIBILITY.